Fort Atkinson, Wisconsin, United States (53538)
Lat: 42.93N, Lon: 88.84W
Wx Zone: WIZ064
Local Info
Past Weather Observations for Today

NOTE: This archive is for the closest National Weather Service station to Fort Atkinson. Information may differ from the station used for current weather conditions.

Click here for Long-term Archive

Time Weather Temperature Dewpoint Humidity Pressure Winds Precip Visibility
07:15
Overcast
Light Rain
70°F / 21°C 70°F / 21°C 100% 30.01 in
(1016 mb)
SSW 4.6 mph
(SSW 7 kph)
0.01 in
(0.25 mm)
10SM
06:55
Overcast
Light Rain
70°F / 21°C 70°F / 21°C 100% 30.01 in
(1016 mb)
SSE 8.1 mph
(SSE 13 kph)
0.14 in
(3.56 mm)
10SM
06:35
Overcast
Rain
70°F / 21°C 70°F / 21°C 100% 29.98 in
(1015 mb)
Calm 0.12 in
(3.05 mm)
7SM
06:15
Overcast
Rain
68°F / 20°C 68°F / 20°C 100% 30.01 in
(1016 mb)
SW 3.5 mph
(SW 6 kph)
0.06 in
(1.52 mm)
3SM
05:55
Overcast
Rain
68°F / 20°C 68°F / 20°C 100% 30.01 in
(1016 mb)
Calm 0.28 in
(7.11 mm)
1 1/2SM
05:35
Overcast
Thunder Storms
68°F / 20°C 68°F / 20°C 100% 30.01 in
(1016 mb)
Calm 0.15 in
(3.81 mm)
4SM
05:15
Overcast
Thunder Storms
68°F / 20°C 68°F / 20°C 100% 30.01 in
(1016 mb)
SSE 3.5 mph
(SSE 6 kph)
0.04 in
(1.02 mm)
5SM
04:55
Overcast
Thunder Storms
68°F / 20°C 68°F / 20°C 100% 29.98 in
(1015 mb)
Calm 0.53 in
(13.46 mm)
7SM
04:35
Overcast
Thunder Storms
68°F / 20°C 68°F / 20°C 100% 29.98 in
(1015 mb)
Calm 0.44 in
(11.18 mm)
5SM
04:15
Overcast
Thunder Storms
68°F / 20°C 68°F / 20°C 100% 29.98 in
(1015 mb)
SE 5.8 mph
(SE 9 kph)
0.23 in
(5.84 mm)
1 1/2SM
03:55
Overcast
Thunder Storms
68°F / 20°C 68°F / 20°C 100% 29.98 in
(1015 mb)
NW 4.6 mph
(NW 7 kph)
0.52 in
(13.21 mm)
4SM
03:35
Overcast
Thunder Storms
68°F / 20°C 68°F / 20°C 100% 29.98 in
(1015 mb)
WNW 6.9 mph
(WNW 11 kph)
0.32 in
(8.13 mm)
3SM
03:15
Overcast
Rain
72°F / 22°C 70°F / 21°C 94% 29.95 in
(1014 mb)
NW 15 mph
(NW 24 kph)
0.02 in
(0.51 mm)
10SM
02:55
Overcast
75°F / 24°C 75°F / 24°C 100% 29.92 in
(1013 mb)
WNW 16.1 mph
(WNW 26 kph)
- 10SM
02:35
Overcast
73°F / 23°C 73°F / 23°C 100% 29.89 in
(1012 mb)
S 4.6 mph
(S 7 kph)
- 10SM
02:15
Mostly Cloudy
73°F / 23°C 73°F / 23°C 100% 29.89 in
(1012 mb)
S 4.6 mph
(S 7 kph)
- 10SM
01:55
Partly Cloudy
73°F / 23°C 73°F / 23°C 100% 29.89 in
(1012 mb)
SSE 6.9 mph
(SSE 11 kph)
- 10SM
01:35
Mostly Cloudy
73°F / 23°C 70°F / 21°C 89% 29.89 in
(1012 mb)
SSE 4.6 mph
(SSE 7 kph)
- 10SM
01:15
Partly Cloudy
Thunder Storms
73°F / 23°C 72°F / 22°C 94% 29.92 in
(1013 mb)
SE 5.8 mph
(SE 9 kph)
- 10SM
00:55
Mostly Cloudy
Thunder Storms
73°F / 23°C 73°F / 23°C 100% 29.92 in
(1013 mb)
S 8.1 mph
(S 13 kph)
0.03 in
(0.76 mm)
10SM
00:35
Partly Cloudy
73°F / 23°C 73°F / 23°C 100% 29.92 in
(1013 mb)
S 12.7 mph
(S 20 kph)
0.03 in
(0.76 mm)
10SM
00:15
Mostly Cloudy
Thunder Storms
73°F / 23°C 73°F / 23°C 100% 29.95 in
(1014 mb)
S 9.2 mph
(S 15 kph)
0.02 in
(0.51 mm)
10SM
Time Weather Temperature Dewpoint Humidity Pressure Winds Precip Visibility


Weather for websites

WeatherForYou.com, LLC is not responsible for any damages or problems caused by this service. Current weather conditions are obtained from the closest station including government and personal stations which may have varying degrees of accuracy. Weather forecasts are derived from the NOAA NDFD. Like all things, this site belongs to Jesus Christ... He just trusts us to maintain it. If you have any questions or comments email webmaster@weatherforyou.com

Copyright © 2016, WeatherForYou.com LLC. All rights reserved.